Time,TemperatureF,DewpointF,PressureIn,WindDirection,WindDirectionDegrees,WindSpeedMPH,WindSpeedGustMPH,Humidity,HourlyPrecipIn,Conditions,Clouds,dailyrainin,SolarRadiationWatts/m^2,SoftwareType,DateUTC
2013-12-06 00:00:00,-4.2,-8.5,30.31,WSW,249,6.0,10.0,81,0.00,,OVC,0.00,0.00,VWS V15.00,2013-12-06 06:00:00,
2013-12-06 00:03:00,-3.2,-7.6,30.31,West,265,9.0,9.0,81,0.00,,SCT,0.00,0.00,VWS V14.01,2013-12-06 06:03:00,
2013-12-06 00:05:00,-4.3,-8.6,30.32,West,269,7.0,9.0,81,0.00,,OVC,0.00,0.00,VWS V15.00,2013-12-06 06:05:00,
2013-12-06 00:09:00,-3.4,-7.8,30.30,WSW,254,5.0,9.0,81,0.00,,SCT,0.00,0.00,VWS V14.01,2013-12-06 06:09:00,
2013-12-06 00:10:00,-4.4,-8.7,30.32,West,263,6.0,9.0,81,0.00,,OVC,0.00,0.00,VWS V15.00,2013-12-06 06:10:00,
2013-12-06 00:14:00,-3.4,-7.8,30.30,West,267,6.0,9.0,81,0.00,,SCT,0.00,0.00,VWS V14.01,2013-12-06 06:14:00,
2013-12-06 00:15:00,-4.5,-8.8,30.33,West,259,4.0,9.0,81,0.00,,OVC,0.00,0.00,VWS V15.00,2013-12-06 06:15:00,
2013-12-06 00:19:00,-3.5,-7.9,30.31,West,277,5.0,9.0,81,0.00,,SCT,0.00,0.00,VWS V14.01,2013-12-06 06:19:00,
2013-12-06 00:20:00,-4.5,-8.8,30.33,WSW,257,5.0,7.0,81,0.00,,OVC,0.00,0.00,VWS V15.00,2013-12-06 06:20:00,
2013-12-06 00:24:00,-3.5,-7.9,30.31,West,281,7.0,8.0,81,0.00,,SCT,0.00,0.00,VWS V14.01,2013-12-06 06:24:00,
2013-12-06 00:25:00,-4.5,-8.6,30.33,WSW,250,5.0,7.0,82,0.00,,OVC,0.00,0.00,VWS V15.00,2013-12-06 06:25:00,
2013-12-06 00:29:00,-3.6,-7.9,30.31,West,265,4.0,8.0,81,0.00,,SCT,0.00,0.00,VWS V14.01,2013-12-06 06:29:00,
2013-12-06 00:30:00,-4.6,-8.7,30.34,WSW,250,6.0,7.0,82,0.00,,OVC,0.00,0.00,VWS V15.00,2013-12-06 06:30:00,
2013-12-06 00:34:00,-3.7,-8.1,30.31,West,275,4.0,8.0,81,0.00,,SCT,0.00,0.00,VWS V14.01,2013-12-06 06:34:00,
2013-12-06 00:35:00,-4.6,-8.9,30.34,WSW,258,4.0,7.0,81,0.00,,OVC,0.00,0.00,VWS V15.00,2013-12-06 06:35:00,
2013-12-06 00:39:00,-3.8,-8.1,30.31,West,276,8.0,8.0,81,0.00,,SCT,0.00,0.00,VWS V14.01,2013-12-06 06:39:00,
2013-12-06 00:40:00,-4.6,-8.7,30.34,WSW,255,6.0,8.0,82,0.00,,OVC,0.00,0.00,VWS V15.00,2013-12-06 06:40:00,
2013-12-06 00:44:00,-4.0,-8.4,30.31,West,265,7.0,8.0,81,0.00,,SCT,0.00,0.00,VWS V14.01,2013-12-06 06:44:00,
2013-12-06 00:45:00,-4.7,-9.0,30.34,West,263,6.0,8.0,81,0.00,,OVC,0.00,0.00,VWS V15.00,2013-12-06 06:45:00,
2013-12-06 00:49:00,-4.0,-8.4,30.31,West,267,6.0,8.0,81,0.00,,SCT,0.00,0.00,VWS V14.01,2013-12-06 06:49:00,
2013-12-06 00:50:00,-4.8,-9.1,30.34,West,261,4.0,8.0,81,0.00,,OVC,0.00,0.00,VWS V15.00,2013-12-06 06:50:00,
2013-12-06 00:54:00,-4.1,-8.4,30.31,WSW,255,6.0,6.0,81,0.00,,SCT,0.00,0.00,VWS V14.01,2013-12-06 06:54:00,
2013-12-06 00:55:00,-4.8,-9.1,30.34,West,261,6.0,9.0,81,0.00,,OVC,0.00,0.00,VWS V15.00,2013-12-06 06:55:00,
2013-12-06 00:59:00,-4.2,-8.5,30.31,West,264,7.0,7.0,81,0.00,,SCT,0.00,0.00,VWS V14.01,2013-12-06 06:59:00,
2013-12-06 01:00:00,-4.9,-9.2,30.35,WSW,249,4.0,6.0,81,0.00,,OVC,0.00,0.00,VWS V15.00,2013-12-06 07:00:00,
2013-12-06 01:04:00,-4.3,-8.6,30.31,West,278,6.0,7.0,81,0.00,,SCT,0.00,0.00,VWS V14.01,2013-12-06 07:04:00,
2013-12-06 01:05:00,-5.0,-9.3,30.35,WSW,250,5.0,7.0,81,0.00,,OVC,0.00,0.00,VWS V15.00,2013-12-06 07:05:00,
2013-12-06 01:09:00,-4.4,-8.7,30.32,West,269,7.0,9.0,81,0.00,,SCT,0.00,0.00,VWS V14.01,2013-12-06 07:09:00,
2013-12-06 01:10:00,-5.2,-9.5,30.35,WSW,257,6.0,7.0,81,0.00,,OVC,0.00,0.00,VWS V15.00,2013-12-06 07:10:00,
2013-12-06 01:14:00,-4.5,-8.8,30.32,WSW,253,5.0,9.0,81,0.00,,SCT,0.00,0.00,VWS V14.01,2013-12-06 07:14:00,
2013-12-06 01:15:00,-5.3,-9.6,30.35,WSW,249,4.0,8.0,81,0.00,,OVC,0.00,0.00,VWS V15.00,2013-12-06 07:15:00,
2013-12-06 01:19:00,-4.5,-8.6,30.33,West,278,4.0,7.0,82,0.00,,SCT,0.00,0.00,VWS V14.01,2013-12-06 07:19:00,
2013-12-06 01:20:00,-5.4,-9.7,30.35,WSW,254,6.0,8.0,81,0.00,,OVC,0.00,0.00,VWS V15.00,2013-12-06 07:20:00,
2013-12-06 01:24:00,-4.5,-8.8,30.33,West,268,6.0,7.0,81,0.00,,SCT,0.00,0.00,VWS V14.01,2013-12-06 07:24:00,
2013-12-06 01:25:00,-5.5,-9.8,30.35,WSW,258,4.0,7.0,81,0.00,,OVC,0.00,0.00,VWS V15.00,2013-12-06 07:25:00,
2013-12-06 01:29:00,-4.6,-8.7,30.33,West,261,5.0,7.0,82,0.00,,SCT,0.00,0.00,VWS V14.01,2013-12-06 07:29:00,
2013-12-06 01:30:00,-5.7,-10.0,30.36,West,261,7.0,7.0,81,0.00,,OVC,0.00,0.00,VWS V15.00,2013-12-06 07:30:00,
2013-12-06 01:34:00,-4.6,-8.9,30.34,West,268,7.0,7.0,81,0.00,,SCT,0.00,0.00,VWS V14.01,2013-12-06 07:34:00,
2013-12-06 01:35:00,-5.7,-10.0,30.36,WSW,248,4.0,8.0,81,0.00,,OVC,0.00,0.00,VWS V15.00,2013-12-06 07:35:00,
2013-12-06 01:39:00,-4.6,-8.9,30.34,West,266,7.0,7.0,81,0.00,,SCT,0.00,0.00,VWS V14.01,2013-12-06 07:39:00,
2013-12-06 01:40:00,-5.8,-10.1,30.35,West,271,6.0,7.0,81,0.00,,OVC,0.00,0.00,VWS V15.00,2013-12-06 07:40:00,
2013-12-06 01:44:00,-4.7,-9.0,30.34,WSW,238,4.0,7.0,81,0.00,,SCT,0.00,0.00,VWS V14.01,2013-12-06 07:44:00,
2013-12-06 01:45:00,-5.9,-10.2,30.36,WSW,254,6.0,11.0,81,0.00,,OVC,0.00,0.00,VWS V15.00,2013-12-06 07:45:00,
2013-12-06 01:49:00,-4.8,-9.1,30.34,West,263,5.0,6.0,81,0.00,,SCT,0.00,0.00,VWS V14.01,2013-12-06 07:49:00,
2013-12-06 01:50:00,-5.9,-10.2,30.36,West,261,6.0,9.0,81,0.00,,OVC,0.00,0.00,VWS V15.00,2013-12-06 07:50:00,
2013-12-06 01:54:00,-4.8,-9.1,30.34,West,263,9.0,9.0,81,0.00,,SCT,0.00,0.00,VWS V14.01,2013-12-06 07:54:00,
2013-12-06 01:55:00,-6.0,-10.3,30.36,West,269,5.0,9.0,81,0.00,,OVC,0.00,0.00,VWS V15.00,2013-12-06 07:55:00,
2013-12-06 01:59:00,-4.9,-9.2,30.35,WSW,244,6.0,6.0,81,0.00,,SCT,0.00,0.00,VWS V14.01,2013-12-06 07:59:00,
2013-12-06 02:00:00,-6.0,-10.3,30.36,WSW,258,5.0,10.0,81,0.00,,OVC,0.00,0.00,VWS V15.00,2013-12-06 08:00:00,
2013-12-06 02:04:00,-5.0,-9.3,30.35,WSW,255,5.0,7.0,81,0.00,,SCT,0.00,0.00,VWS V14.01,2013-12-06 08:04:00,
2013-12-06 02:05:00,-6.1,-10.4,30.36,WSW,253,4.0,9.0,81,0.00,,OVC,0.00,0.00,VWS V15.00,2013-12-06 08:05:00,
2013-12-06 02:10:00,-5.1,-9.4,30.35,WSW,252,5.0,7.0,81,0.00,,SCT,0.00,0.00,VWS V14.01,2013-12-06 08:10:00,
2013-12-06 02:15:00,-5.3,-9.6,30.35,West,264,5.0,8.0,81,0.00,,SCT,0.00,0.00,VWS V14.01,2013-12-06 08:15:00,
2013-12-06 02:20:00,-5.4,-9.7,30.36,WSW,253,6.0,8.0,81,0.00,,SCT,0.00,0.00,VWS V14.01,2013-12-06 08:20:00,
2013-12-06 02:25:00,-5.5,-9.8,30.35,West,265,6.0,7.0,81,0.00,,SCT,0.00,0.00,VWS V14.01,2013-12-06 08:25:00,
2013-12-06 02:30:00,-5.7,-10.0,30.36,WSW,257,4.0,7.0,81,0.00,,SCT,0.00,0.00,VWS V14.01,2013-12-06 08:30:00,
2013-12-06 02:35:00,-5.7,-10.0,30.36,WSW,254,6.0,8.0,81,0.00,,SCT,0.00,0.00,VWS V14.01,2013-12-06 08:35:00,
2013-12-06 02:40:00,-5.8,-10.1,30.36,West,263,5.0,7.0,81,0.00,,SCT,0.00,0.00,VWS V14.01,2013-12-06 08:40:00,
2013-12-06 02:45:00,-5.9,-10.2,30.36,WSW,254,6.0,11.0,81,0.00,,SCT,0.00,0.00,VWS V14.01,2013-12-06 08:45:00,
2013-12-06 02:50:00,-5.9,-10.2,30.36,West,261,5.0,9.0,81,0.00,,SCT,0.00,0.00,VWS V14.01,2013-12-06 08:50:00,
2013-12-06 02:55:00,-5.9,-10.2,30.36,West,268,5.0,9.0,81,0.00,,SCT,0.00,0.00,VWS V14.01,2013-12-06 08:55:00,
2013-12-06 03:00:00,-6.0,-10.3,30.36,West,259,6.0,9.0,81,0.00,,SCT,0.00,0.00,VWS V14.01,2013-12-06 09:00:00,
2013-12-06 03:05:00,-6.1,-10.4,30.36,West,260,7.0,9.0,81,0.00,,SCT,0.00,0.00,VWS V14.01,2013-12-06 09:05:00,
2013-12-06 03:10:00,-6.1,-10.4,30.36,WSW,256,6.0,10.0,81,0.00,,SCT,0.00,0.00,VWS V14.01,2013-12-06 09:10:00,
2013-12-06 03:15:00,-6.2,-10.5,30.36,West,259,5.0,9.0,81,0.00,,SCT,0.00,0.00,VWS V14.01,2013-12-06 09:15:00,
2013-12-06 03:20:00,-6.2,-10.5,30.37,WSW,253,7.0,10.0,81,0.00,,SCT,0.00,0.00,VWS V14.01,2013-12-06 09:20:00,
2013-12-06 03:25:00,-6.3,-10.6,30.37,West,259,5.0,7.0,81,0.00,,SCT,0.00,0.00,VWS V14.01,2013-12-06 09:25:00,
2013-12-06 03:30:00,-6.4,-10.7,30.36,West,264,5.0,7.0,81,0.00,,SCT,0.00,0.00,VWS V14.01,2013-12-06 09:30:00,
2013-12-06 03:35:00,-6.5,-10.8,30.36,West,271,5.0,7.0,81,0.00,,SCT,0.00,0.00,VWS V14.01,2013-12-06 09:35:00,
2013-12-06 03:40:00,-6.6,-10.9,30.36,West,267,5.0,8.0,81,0.00,,SCT,0.00,0.00,VWS V14.01,2013-12-06 09:40:00,
2013-12-06 03:45:00,-6.7,-11.0,30.36,West,265,5.0,7.0,81,0.00,,SCT,0.00,0.00,VWS V14.01,2013-12-06 09:45:00,
2013-12-06 03:50:00,-6.8,-11.1,30.37,West,271,7.0,9.0,81,0.00,,SCT,0.00,0.00,VWS V14.01,2013-12-06 09:50:00,
2013-12-06 03:55:00,-6.8,-11.1,30.37,WSW,254,5.0,7.0,81,0.00,,SCT,0.00,0.00,VWS V14.01,2013-12-06 09:55:00,
2013-12-06 04:00:00,-6.9,-11.2,30.37,West,267,6.0,9.0,81,0.00,,SCT,0.00,0.00,VWS V14.01,2013-12-06 10:00:00,
2013-12-06 04:05:00,-7.0,-11.3,30.37,WSW,256,4.0,7.0,81,0.00,,SCT,0.00,0.00,VWS V14.01,2013-12-06 10:05:00,
2013-12-06 04:10:00,-7.1,-11.4,30.37,West,259,5.0,7.0,81,0.00,,SCT,0.00,0.00,VWS V14.01,2013-12-06 10:10:00,
2013-12-06 04:15:00,-7.2,-11.5,30.37,West,263,3.0,6.0,81,0.00,,SCT,0.00,0.00,VWS V14.01,2013-12-06 10:15:00,
2013-12-06 04:20:00,-7.3,-11.6,30.37,West,261,5.0,6.0,81,0.00,,SCT,0.00,0.00,VWS V14.01,2013-12-06 10:20:00,
2013-12-06 04:25:00,-7.3,-11.6,30.38,WSW,254,5.0,7.0,81,0.00,,SCT,0.00,0.00,VWS V14.01,2013-12-06 10:25:00,
2013-12-06 04:30:00,-7.5,-11.8,30.38,WSW,249,3.0,6.0,81,0.00,,SCT,0.00,0.00,VWS V14.01,2013-12-06 10:30:00,
2013-12-06 04:35:00,-7.6,-11.9,30.38,WSW,250,3.0,5.0,81,0.00,,SCT,0.00,0.00,VWS V14.01,2013-12-06 10:35:00,
2013-12-06 04:40:00,-7.7,-12.0,30.38,WSW,254,3.0,5.0,81,0.00,,SCT,0.00,0.00,VWS V14.01,2013-12-06 10:40:00,
2013-12-06 04:45:00,-8.9,-13.4,30.40,West,266,2.0,5.0,80,0.00,,OVC,0.00,0.00,VWS V15.00,2013-12-06 10:45:00,
2013-12-06 04:46:00,-7.8,-12.1,30.38,WSW,258,4.0,5.0,81,0.00,,SCT,0.00,0.00,VWS V14.01,2013-12-06 10:46:00,
2013-12-06 04:50:00,-9.0,-13.5,30.40,West,260,4.0,5.0,80,0.00,,OVC,0.00,0.00,VWS V15.00,2013-12-06 10:50:00,
2013-12-06 04:51:00,-7.9,-12.2,30.38,West,261,3.0,5.0,81,0.00,,SCT,0.00,0.00,VWS V14.01,2013-12-06 10:51:00,
2013-12-06 04:55:00,-9.0,-13.2,30.40,West,262,4.0,5.0,81,0.00,,OVC,0.00,0.00,VWS V15.00,2013-12-06 10:55:00,
2013-12-06 04:56:00,-8.0,-12.5,30.38,West,263,4.0,4.0,80,0.00,,SCT,0.00,0.00,VWS V14.01,2013-12-06 10:56:00,
2013-12-06 05:00:00,-9.1,-13.3,30.40,West,262,3.0,4.0,81,0.00,,OVC,0.00,0.00,VWS V15.00,2013-12-06 11:00:00,
2013-12-06 05:01:00,-8.1,-12.6,30.38,West,274,2.0,6.0,80,0.00,,SCT,0.00,0.00,VWS V14.01,2013-12-06 11:01:00,
2013-12-06 05:05:00,-9.0,-13.2,30.41,West,260,2.0,5.0,81,0.00,,OVC,0.00,0.00,VWS V15.00,2013-12-06 11:05:00,
2013-12-06 05:06:00,-8.2,-12.5,30.39,West,269,3.0,5.0,81,0.00,,SCT,0.00,0.00,VWS V14.01,2013-12-06 11:06:00,
2013-12-06 05:10:00,-9.0,-13.2,30.41,West,261,2.0,4.0,81,0.00,,OVC,0.00,0.00,VWS V15.00,2013-12-06 11:10:00,
2013-12-06 05:11:00,-8.2,-12.5,30.39,West,263,3.0,5.0,81,0.00,,SCT,0.00,0.00,VWS V14.01,2013-12-06 11:11:00,
2013-12-06 05:15:00,-9.0,-13.2,30.41,West,261,2.0,4.0,81,0.00,,OVC,0.00,0.00,VWS V15.00,2013-12-06 11:15:00,
2013-12-06 05:16:00,-8.3,-12.6,30.39,WSW,252,2.0,3.0,81,0.00,,SCT,0.00,0.00,VWS V14.01,2013-12-06 11:16:00,
2013-12-06 05:20:00,-9.1,-13.3,30.41,West,261,2.0,3.0,81,0.00,,OVC,0.00,0.00,VWS V15.00,2013-12-06 11:20:00,
2013-12-06 05:21:00,-8.4,-12.6,30.39,West,269,3.0,5.0,81,0.00,,SCT,0.00,0.00,VWS V14.01,2013-12-06 11:21:00,
2013-12-06 05:25:00,-9.1,-13.3,30.42,West,261,1.0,5.0,81,0.00,,OVC,0.00,0.00,VWS V15.00,2013-12-06 11:25:00,
2013-12-06 05:26:00,-8.5,-12.8,30.39,West,270,2.0,4.0,81,0.00,,SCT,0.00,0.00,VWS V14.01,2013-12-06 11:26:00,
2013-12-06 05:30:00,-9.2,-13.4,30.42,West,263,3.0,6.0,81,0.00,,OVC,0.00,0.00,VWS V15.00,2013-12-06 11:30:00,
2013-12-06 05:31:00,-8.6,-12.9,30.39,West,267,3.0,4.0,81,0.00,,SCT,0.00,0.00,VWS V14.01,2013-12-06 11:31:00,
2013-12-06 05:35:00,-9.3,-13.5,30.42,West,263,4.0,5.0,81,0.00,,OVC,0.00,0.00,VWS V15.00,2013-12-06 11:35:00,
2013-12-06 05:36:00,-8.7,-13.2,30.39,West,264,2.0,4.0,80,0.00,,SCT,0.00,0.00,VWS V14.01,2013-12-06 11:36:00,
2013-12-06 05:40:00,-9.4,-13.6,30.43,WSW,252,3.0,4.0,81,0.00,,OVC,0.00,0.00,VWS V15.00,2013-12-06 11:40:00,
2013-12-06 05:41:00,-8.8,-13.3,30.40,West,265,4.0,4.0,80,0.00,,SCT,0.00,0.00,VWS V14.01,2013-12-06 11:41:00,
2013-12-06 05:45:00,-9.5,-14.0,30.43,SW,227,2.0,4.0,80,0.00,,OVC,0.00,0.00,VWS V15.00,2013-12-06 11:45:00,
2013-12-06 05:46:00,-8.9,-13.4,30.40,West,266,3.0,5.0,80,0.00,,SCT,0.00,0.00,VWS V14.01,2013-12-06 11:46:00,
2013-12-06 05:50:00,-9.5,-13.7,30.44,SW,229,3.0,4.0,81,0.00,,OVC,0.00,0.00,VWS V15.00,2013-12-06 11:50:00,
2013-12-06 05:51:00,-9.0,-13.5,30.40,West,260,3.0,5.0,80,0.00,,SCT,0.00,0.00,VWS V14.01,2013-12-06 11:51:00,
2013-12-06 05:55:00,-9.6,-13.8,30.43,SW,230,2.0,4.0,81,0.00,,OVC,0.00,0.00,VWS V15.00,2013-12-06 11:55:00,
2013-12-06 05:56:00,-9.1,-13.3,30.40,West,262,5.0,5.0,81,0.00,,SCT,0.00,0.00,VWS V14.01,2013-12-06 11:56:00,
2013-12-06 06:00:00,-9.7,-14.2,30.43,SW,230,1.0,3.0,80,0.00,,OVC,0.00,0.00,VWS V15.00,2013-12-06 12:00:00,
2013-12-06 06:01:00,-9.1,-13.3,30.40,West,262,4.0,4.0,81,0.00,,SCT,0.00,0.00,VWS V14.01,2013-12-06 12:01:00,
2013-12-06 06:05:00,-9.8,-14.3,30.43,SW,234,2.0,4.0,80,0.00,,OVC,0.00,0.00,VWS V15.00,2013-12-06 12:05:00,
2013-12-06 06:06:00,-9.0,-13.2,30.41,West,260,3.0,5.0,81,0.00,,SCT,0.00,0.00,VWS V14.01,2013-12-06 12:06:00,
2013-12-06 06:10:00,-9.9,-14.4,30.43,SW,234,2.0,4.0,80,0.00,,OVC,0.00,0.00,VWS V15.00,2013-12-06 12:10:00,
2013-12-06 06:11:00,-9.0,-13.2,30.41,West,261,3.0,4.0,81,0.00,,SCT,0.00,0.00,VWS V14.01,2013-12-06 12:11:00,
2013-12-06 06:15:00,-10.1,-14.6,30.43,WSW,238,4.0,4.0,80,0.00,,OVC,0.00,0.00,VWS V15.00,2013-12-06 12:15:00,
2013-12-06 06:16:00,-9.0,-13.2,30.41,West,261,3.0,4.0,81,0.00,,SCT,0.00,0.00,VWS V14.01,2013-12-06 12:16:00,
2013-12-06 06:20:00,-10.2,-14.7,30.44,WSW,242,2.0,5.0,80,0.00,,OVC,0.00,0.00,VWS V15.00,2013-12-06 12:20:00,
2013-12-06 06:21:00,-9.1,-13.3,30.41,West,261,2.0,3.0,81,0.00,,SCT,0.00,0.00,VWS V14.01,2013-12-06 12:21:00,
2013-12-06 06:25:00,-10.2,-14.7,30.44,WSW,243,4.0,4.0,80,0.00,,OVC,0.00,0.00,VWS V15.00,2013-12-06 12:25:00,
2013-12-06 06:26:00,-9.1,-13.3,30.42,West,261,1.0,5.0,81,0.00,,SCT,0.00,0.00,VWS V14.01,2013-12-06 12:26:00,
2013-12-06 06:30:00,-10.3,-14.8,30.44,WSW,250,2.0,5.0,80,0.00,,OVC,0.00,0.00,VWS V15.00,2013-12-06 12:30:00,
2013-12-06 06:31:00,-9.2,-13.4,30.42,West,263,3.0,6.0,81,0.00,,SCT,0.00,0.00,VWS V14.01,2013-12-06 12:31:00,
2013-12-06 06:35:00,-10.3,-14.8,30.44,West,267,3.0,6.0,80,0.00,,OVC,0.00,0.00,VWS V15.00,2013-12-06 12:35:00,
2013-12-06 06:36:00,-9.3,-13.5,30.42,West,263,4.0,5.0,81,0.00,,SCT,0.00,0.00,VWS V14.01,2013-12-06 12:36:00,
2013-12-06 06:40:00,-10.3,-14.8,30.44,WSW,256,4.0,5.0,80,0.00,,OVC,0.00,0.00,VWS V15.00,2013-12-06 12:40:00,
2013-12-06 06:41:00,-9.4,-13.6,30.43,WSW,252,3.0,4.0,81,0.00,,SCT,0.00,0.00,VWS V14.01,2013-12-06 12:41:00,
2013-12-06 06:45:00,-10.4,-14.9,30.45,WSW,257,3.0,5.0,80,0.00,,OVC,0.00,5.00,VWS V15.00,2013-12-06 12:45:00,
2013-12-06 06:46:00,-9.5,-14.0,30.43,SW,227,2.0,4.0,80,0.00,,SCT,0.00,0.00,VWS V14.01,2013-12-06 12:46:00,
2013-12-06 06:50:00,-10.4,-14.9,30.44,West,261,3.0,6.0,80,0.00,,OVC,0.00,5.00,VWS V15.00,2013-12-06 12:50:00,
2013-12-06 06:51:00,-9.5,-13.7,30.44,SW,229,3.0,4.0,81,0.00,,SCT,0.00,0.00,VWS V14.01,2013-12-06 12:51:00,
2013-12-06 06:55:00,-10.4,-14.6,30.44,West,260,4.0,6.0,81,0.00,,OVC,0.00,7.00,VWS V15.00,2013-12-06 12:55:00,
2013-12-06 06:56:00,-9.6,-13.8,30.43,SW,230,1.0,2.0,81,0.00,,SCT,0.00,0.00,VWS V14.01,2013-12-06 12:56:00,
2013-12-06 07:00:00,-10.3,-14.5,30.45,West,264,3.0,5.0,81,0.00,,OVC,0.00,9.00,VWS V15.00,2013-12-06 13:00:00,
2013-12-06 07:01:00,-9.7,-14.2,30.43,SW,230,2.0,2.0,80,0.00,,SCT,0.00,0.00,VWS V14.01,2013-12-06 13:01:00,
2013-12-06 07:05:00,-10.2,-14.4,30.45,West,263,3.0,5.0,81,0.00,,OVC,0.00,9.00,VWS V15.00,2013-12-06 13:05:00,
2013-12-06 07:06:00,-9.8,-14.3,30.43,SW,234,3.0,3.0,80,0.00,,SCT,0.00,0.00,VWS V14.01,2013-12-06 13:06:00,
2013-12-06 07:10:00,-10.2,-14.4,30.45,West,270,5.0,7.0,81,0.00,,OVC,0.00,11.00,VWS V15.00,2013-12-06 13:10:00,
2013-12-06 07:11:00,-10.0,-14.5,30.43,SW,234,2.0,2.0,80,0.00,,SCT,0.00,0.00,VWS V14.01,2013-12-06 13:11:00,
2013-12-06 07:15:00,-10.0,-14.2,30.45,WSW,254,4.0,6.0,81,0.00,,OVC,0.00,11.00,VWS V15.00,2013-12-06 13:15:00,
2013-12-06 07:17:00,-10.1,-14.6,30.43,WSW,238,3.0,4.0,80,0.00,,SCT,0.00,0.00,VWS V14.01,2013-12-06 13:17:00,
2013-12-06 07:20:00,-9.8,-14.0,30.45,WSW,257,2.0,5.0,81,0.00,,OVC,0.00,12.00,VWS V15.00,2013-12-06 13:20:00,
2013-12-06 07:22:00,-10.2,-14.7,30.44,WSW,242,3.0,3.0,80,0.00,,SCT,0.00,0.00,VWS V14.01,2013-12-06 13:22:00,
2013-12-06 07:25:00,-9.8,-14.0,30.46,WSW,257,2.0,5.0,81,0.00,,OVC,0.00,14.00,VWS V15.00,2013-12-06 13:25:00,
2013-12-06 07:27:00,-10.2,-14.7,30.44,WSW,246,4.0,4.0,80,0.00,,SCT,0.00,0.00,VWS V14.01,2013-12-06 13:27:00,
2013-12-06 07:30:00,-9.8,-14.0,30.46,WSW,252,2.0,5.0,81,0.00,,OVC,0.00,14.00,VWS V15.00,2013-12-06 13:30:00,
2013-12-06 07:32:00,-10.3,-14.8,30.44,WSW,250,3.0,3.0,80,0.00,,SCT,0.00,0.00,VWS V14.01,2013-12-06 13:32:00,
2013-12-06 07:35:00,-9.7,-13.9,30.46,WSW,248,4.0,6.0,81,0.00,,OVC,0.00,16.00,VWS V15.00,2013-12-06 13:35:00,
2013-12-06 07:37:00,-10.3,-14.8,30.44,West,266,3.0,4.0,80,0.00,,SCT,0.00,0.00,VWS V14.01,2013-12-06 13:37:00,
2013-12-06 07:40:00,-9.4,-13.6,30.46,WSW,255,4.0,5.0,81,0.00,,OVC,0.00,16.00,VWS V15.00,2013-12-06 13:40:00,
2013-12-06 07:42:00,-10.3,-14.8,30.45,WSW,256,3.0,4.0,80,0.00,,SCT,0.00,0.00,VWS V14.01,2013-12-06 13:42:00,
2013-12-06 07:45:00,-9.3,-13.5,30.47,West,274,4.0,5.0,81,0.00,,OVC,0.00,18.00,VWS V15.00,2013-12-06 13:45:00,
2013-12-06 07:47:00,-10.4,-14.9,30.44,WSW,256,5.0,5.0,80,0.00,,SCT,0.00,5.00,VWS V14.01,2013-12-06 13:47:00,
2013-12-06 07:50:00,-9.0,-13.2,30.47,West,261,5.0,6.0,81,0.00,,OVC,0.00,19.00,VWS V15.00,2013-12-06 13:50:00,
2013-12-06 07:52:00,-10.4,-14.9,30.44,West,261,3.0,4.0,80,0.00,,SCT,0.00,5.00,VWS V14.01,2013-12-06 13:52:00,
2013-12-06 07:55:00,-8.7,-12.9,30.47,West,273,6.0,8.0,81,0.00,,OVC,0.00,25.00,VWS V15.00,2013-12-06 13:55:00,
2013-12-06 07:57:00,-10.4,-14.6,30.44,West,260,3.0,4.0,81,0.00,,SCT,0.00,7.00,VWS V14.01,2013-12-06 13:57:00,
2013-12-06 08:00:00,-8.4,-12.4,30.47,WSW,250,3.0,6.0,82,0.00,,OVC,0.00,23.00,VWS V15.00,2013-12-06 14:00:00,
2013-12-06 08:02:00,-10.3,-14.5,30.45,West,264,2.0,3.0,81,0.00,,SCT,0.00,9.00,VWS V14.01,2013-12-06 14:02:00,
2013-12-06 08:05:00,-8.1,-12.1,30.48,WSW,249,3.0,7.0,82,0.00,,OVC,0.00,23.00,VWS V15.00,2013-12-06 14:05:00,
2013-12-06 08:07:00,-10.2,-14.4,30.45,West,265,4.0,4.0,81,0.00,,SCT,0.00,9.00,VWS V14.01,2013-12-06 14:07:00,
2013-12-06 08:10:00,-7.7,-11.7,30.48,WNW,282,4.0,7.0,82,0.00,,OVC,0.00,25.00,VWS V15.00,2013-12-06 14:10:00,
2013-12-06 08:12:00,-10.2,-14.4,30.45,WSW,252,4.0,5.0,81,0.00,,SCT,0.00,11.00,VWS V14.01,2013-12-06 14:12:00,
2013-12-06 08:15:00,-7.4,-11.4,30.48,West,269,5.0,8.0,82,0.00,,OVC,0.00,25.00,VWS V15.00,2013-12-06 14:15:00,
2013-12-06 08:17:00,-10.0,-14.2,30.45,WSW,255,5.0,5.0,81,0.00,,SCT,0.00,11.00,VWS V14.01,2013-12-06 14:17:00,
2013-12-06 08:20:00,-7.0,-11.0,30.49,WSW,254,7.0,7.0,82,0.00,,OVC,0.00,28.00,VWS V15.00,2013-12-06 14:20:00,
2013-12-06 08:22:00,-9.8,-14.0,30.46,WSW,257,2.0,2.0,81,0.00,,SCT,0.00,12.00,VWS V14.01,2013-12-06 14:22:00,
2013-12-06 08:25:00,-6.8,-10.8,30.49,WSW,245,3.0,7.0,82,0.00,,OVC,0.00,25.00,VWS V15.00,2013-12-06 14:25:00,
2013-12-06 08:27:00,-9.8,-14.0,30.46,WSW,253,3.0,4.0,81,0.00,,SCT,0.00,14.00,VWS V14.01,2013-12-06 14:27:00,
2013-12-06 08:30:00,-6.5,-10.6,30.49,WSW,246,4.0,7.0,82,0.00,,OVC,0.00,25.00,VWS V15.00,2013-12-06 14:30:00,
2013-12-06 08:32:00,-9.7,-13.9,30.46,WSW,252,3.0,3.0,81,0.00,,SCT,0.00,16.00,VWS V14.01,2013-12-06 14:32:00,
2013-12-06 08:35:00,-6.4,-10.4,30.50,WSW,252,4.0,7.0,82,0.00,,OVC,0.00,30.00,VWS V15.00,2013-12-06 14:35:00,
2013-12-06 08:37:00,-9.7,-13.9,30.46,WSW,250,4.0,4.0,81,0.00,,SCT,0.00,16.00,VWS V14.01,2013-12-06 14:37:00,
2013-12-06 08:40:00,-6.1,-10.1,30.50,WSW,257,3.0,6.0,82,0.00,,OVC,0.00,28.00,VWS V15.00,2013-12-06 14:40:00,
2013-12-06 08:42:00,-9.4,-13.6,30.47,West,259,3.0,4.0,81,0.00,,SCT,0.00,16.00,VWS V14.01,2013-12-06 14:42:00,
2013-12-06 08:45:00,-5.9,-10.0,30.50,WSW,248,4.0,6.0,82,0.00,,OVC,0.00,32.00,VWS V15.00,2013-12-06 14:45:00,
2013-12-06 08:47:00,-9.2,-13.4,30.47,West,275,2.0,4.0,81,0.00,,SCT,0.00,21.00,VWS V14.01,2013-12-06 14:47:00,
2013-12-06 08:50:00,-5.8,-10.1,30.50,WSW,247,3.0,6.0,81,0.00,,OVC,0.00,33.00,VWS V15.00,2013-12-06 14:50:00,
2013-12-06 08:52:00,-8.9,-13.1,30.47,West,277,6.0,6.0,81,0.00,,SCT,0.00,19.00,VWS V14.01,2013-12-06 14:52:00,
2013-12-06 08:55:00,-5.6,-9.7,30.51,WSW,249,4.0,7.0,82,0.00,,OVC,0.00,30.00,VWS V15.00,2013-12-06 14:55:00,
2013-12-06 08:57:00,-8.6,-12.9,30.47,WSW,255,3.0,6.0,81,0.00,,SCT,0.00,25.00,VWS V14.01,2013-12-06 14:57:00,
2013-12-06 09:00:00,-5.4,-9.5,30.51,WSW,244,3.0,6.0,82,0.00,,OVC,0.00,30.00,VWS V15.00,2013-12-06 15:00:00,
2013-12-06 09:02:00,-8.3,-12.3,30.47,West,267,6.0,6.0,82,0.00,,SCT,0.00,23.00,VWS V14.01,2013-12-06 15:02:00,
2013-12-06 09:05:00,-5.1,-9.2,30.51,West,263,6.0,6.0,82,0.00,,OVC,0.00,32.00,VWS V15.00,2013-12-06 15:05:00,
2013-12-06 09:07:00,-8.0,-12.0,30.48,West,272,4.0,7.0,82,0.00,,SCT,0.00,23.00,VWS V14.01,2013-12-06 15:07:00,
2013-12-06 09:10:00,-4.9,-9.0,30.51,WSW,238,5.0,7.0,82,0.00,,OVC,0.00,35.00,VWS V15.00,2013-12-06 15:10:00,
2013-12-06 09:12:00,-7.7,-11.7,30.48,WSW,254,3.0,6.0,82,0.00,,SCT,0.00,23.00,VWS V14.01,2013-12-06 15:12:00,
2013-12-06 09:15:00,-4.6,-8.7,30.51,WSW,238,3.0,6.0,82,0.00,,OVC,0.00,37.00,VWS V15.00,2013-12-06 15:15:00,
2013-12-06 09:17:00,-7.3,-11.3,30.48,WSW,258,4.0,5.0,82,0.00,,SCT,0.00,25.00,VWS V14.01,2013-12-06 15:17:00,
2013-12-06 09:20:00,-4.4,-8.5,30.52,West,265,5.0,9.0,82,0.00,,OVC,0.00,40.00,VWS V15.00,2013-12-06 15:20:00,
2013-12-06 09:22:00,-7.0,-11.0,30.48,WSW,254,4.0,7.0,82,0.00,,SCT,0.00,28.00,VWS V14.01,2013-12-06 15:22:00,
2013-12-06 09:25:00,-3.8,-7.9,30.52,West,265,4.0,9.0,82,0.00,,OVC,0.00,40.00,VWS V15.00,2013-12-06 15:25:00,
2013-12-06 09:27:00,-6.7,-10.7,30.49,WSW,249,4.0,4.0,82,0.00,,SCT,0.00,25.00,VWS V14.01,2013-12-06 15:27:00,
2013-12-06 09:30:00,-3.4,-7.5,30.52,WSW,250,5.0,7.0,82,0.00,,OVC,0.00,35.00,VWS V15.00,2013-12-06 15:30:00,
2013-12-06 09:32:00,-6.5,-10.6,30.49,WSW,253,3.0,6.0,82,0.00,,SCT,0.00,26.00,VWS V14.01,2013-12-06 15:32:00,
2013-12-06 09:35:00,-3.2,-7.3,30.52,West,261,7.0,9.0,82,0.00,,OVC,0.00,40.00,VWS V15.00,2013-12-06 15:35:00,
2013-12-06 09:37:00,-6.3,-10.4,30.50,WSW,254,4.0,6.0,82,0.00,,SCT,0.00,33.00,VWS V14.01,2013-12-06 15:37:00,
2013-12-06 09:40:00,-2.9,-7.0,30.52,WNW,284,8.0,9.0,82,0.00,,OVC,0.00,40.00,VWS V15.00,2013-12-06 15:40:00,
2013-12-06 09:42:00,-6.1,-10.1,30.50,WSW,257,3.0,6.0,82,0.00,,SCT,0.00,28.00,VWS V14.01,2013-12-06 15:42:00,
2013-12-06 09:45:00,-2.5,-6.6,30.51,WSW,246,5.0,8.0,82,0.00,,OVC,0.00,49.00,VWS V15.00,2013-12-06 15:45:00,
2013-12-06 09:47:00,-5.8,-9.9,30.50,WSW,243,5.0,6.0,82,0.00,,SCT,0.00,30.00,VWS V14.01,2013-12-06 15:47:00,
2013-12-06 09:50:00,-2.2,-6.3,30.52,West,267,3.0,8.0,82,0.00,,OVC,0.00,47.00,VWS V15.00,2013-12-06 15:50:00,
2013-12-06 09:52:00,-5.7,-10.0,30.50,WSW,247,4.0,4.0,81,0.00,,SCT,0.00,30.00,VWS V14.01,2013-12-06 15:52:00,
2013-12-06 09:55:00,-1.9,-6.0,30.51,West,280,5.0,9.0,82,0.00,,OVC,0.00,39.00,VWS V15.00,2013-12-06 15:55:00,
2013-12-06 09:57:00,-5.5,-9.6,30.51,WSW,246,4.0,5.0,82,0.00,,SCT,0.00,32.00,VWS V14.01,2013-12-06 15:57:00,
2013-12-06 10:00:00,-1.4,-5.6,30.52,West,281,10.0,10.0,82,0.00,,OVC,0.00,49.00,VWS V15.00,2013-12-06 16:00:00,
2013-12-06 10:03:00,-5.3,-9.4,30.51,West,272,2.0,5.0,82,0.00,,SCT,0.00,30.00,VWS V14.01,2013-12-06 16:03:00,
2013-12-06 10:05:00,-1.0,-5.4,30.51,West,277,6.0,13.0,81,0.00,,OVC,0.00,69.00,VWS V15.00,2013-12-06 16:05:00,
2013-12-06 10:08:00,-5.1,-9.2,30.51,WSW,250,5.0,7.0,82,0.00,,SCT,0.00,33.00,VWS V14.01,2013-12-06 16:08:00,
2013-12-06 10:10:00,-0.6,-5.0,30.52,West,265,6.0,8.0,81,0.00,,OVC,0.00,54.00,VWS V15.00,2013-12-06 16:10:00,
2013-12-06 10:13:00,-4.9,-9.0,30.52,WSW,245,5.0,5.0,82,0.00,,SCT,0.00,40.00,VWS V14.01,2013-12-06 16:13:00,
2013-12-06 10:15:00,-0.2,-4.6,30.51,West,265,6.0,9.0,81,0.00,,OVC,0.00,62.00,VWS V15.00,2013-12-06 16:15:00,
2013-12-06 10:18:00,-4.6,-8.7,30.52,West,277,7.0,7.0,82,0.00,,SCT,0.00,33.00,VWS V14.01,2013-12-06 16:18:00,
2013-12-06 10:20:00,0.2,-4.5,30.51,West,273,7.0,10.0,80,0.00,,OVC,0.00,65.00,VWS V15.00,2013-12-06 16:20:00,
2013-12-06 10:23:00,-4.2,-8.3,30.52,West,262,4.0,9.0,82,0.00,,SCT,0.00,65.00,VWS V14.01,2013-12-06 16:23:00,
2013-12-06 10:25:00,0.2,-4.5,30.51,West,265,3.0,11.0,80,0.00,,OVC,0.00,76.00,VWS V15.00,2013-12-06 16:25:00,
2013-12-06 10:28:00,-3.7,-7.8,30.52,West,273,3.0,6.0,82,0.00,,SCT,0.00,44.00,VWS V14.01,2013-12-06 16:28:00,
2013-12-06 10:30:00,0.5,-4.2,30.51,WSW,257,8.0,11.0,80,0.00,,OVC,0.00,53.00,VWS V15.00,2013-12-06 16:30:00,
2013-12-06 10:33:00,-3.3,-7.4,30.52,West,265,7.0,7.0,82,0.00,,SCT,0.00,35.00,VWS V14.01,2013-12-06 16:33:00,
2013-12-06 10:35:00,0.7,-4.0,30.51,West,276,7.0,10.0,80,0.00,,OVC,0.00,56.00,VWS V15.00,2013-12-06 16:35:00,
2013-12-06 10:38:00,-3.1,-7.2,30.52,West,272,5.0,8.0,82,0.00,,SCT,0.00,39.00,VWS V14.01,2013-12-06 16:38:00,
2013-12-06 10:40:00,0.8,-3.9,30.51,West,268,5.0,10.0,80,0.00,,OVC,0.00,69.00,VWS V15.00,2013-12-06 16:40:00,
2013-12-06 10:43:00,-2.8,-6.9,30.51,West,273,4.0,8.0,82,0.00,,SCT,0.00,42.00,VWS V14.01,2013-12-06 16:43:00,
2013-12-06 10:45:00,1.0,-4.0,30.52,West,273,7.0,9.0,79,0.00,,OVC,0.00,102.00,VWS V15.00,2013-12-06 16:45:00,
2013-12-06 10:48:00,-2.4,-6.5,30.51,West,267,6.0,7.0,82,0.00,,SCT,0.00,62.00,VWS V14.01,2013-12-06 16:48:00,
2013-12-06 10:50:00,1.2,-3.8,30.51,West,263,5.0,9.0,79,0.00,,OVC,0.00,139.00,VWS V15.00,2013-12-06 16:50:00,
2013-12-06 10:53:00,-2.1,-6.2,30.51,West,273,7.0,7.0,82,0.00,,SCT,0.00,40.00,VWS V14.01,2013-12-06 16:53:00,
2013-12-06 10:55:00,1.4,-3.6,30.51,West,271,6.0,10.0,79,0.00,,OVC,0.00,105.00,VWS V15.00,2013-12-06 16:55:00,
2013-12-06 10:58:00,-1.8,-5.9,30.51,West,260,4.0,7.0,82,0.00,,SCT,0.00,40.00,VWS V14.01,2013-12-06 16:58:00,
2013-12-06 11:00:00,1.6,-3.4,30.51,WNW,284,4.0,10.0,79,0.00,,OVC,0.00,144.00,VWS V15.00,2013-12-06 17:00:00,
2013-12-06 11:03:00,-1.2,-5.3,30.52,West,277,10.0,13.0,82,0.00,,SCT,0.00,60.00,VWS V14.01,2013-12-06 17:03:00,
2013-12-06 11:05:00,1.9,-3.1,30.51,West,275,5.0,9.0,79,0.00,,OVC,0.00,148.00,VWS V15.00,2013-12-06 17:05:00,
2013-12-06 11:08:00,-0.9,-5.3,30.52,West,274,5.0,7.0,81,0.00,,SCT,0.00,58.00,VWS V14.01,2013-12-06 17:08:00,
2013-12-06 11:10:00,2.1,-3.2,30.51,West,272,8.0,11.0,78,0.00,,OVC,0.00,149.00,VWS V15.00,2013-12-06 17:10:00,
2013-12-06 11:13:00,-0.5,-4.9,30.52,West,268,7.0,9.0,81,0.00,,SCT,0.00,63.00,VWS V14.01,2013-12-06 17:13:00,
2013-12-06 11:15:00,2.1,-3.4,30.51,West,270,8.0,11.0,77,0.00,,OVC,0.00,169.00,VWS V15.00,2013-12-06 17:15:00,
2013-12-06 11:18:00,-0.1,-4.4,30.51,West,269,5.0,8.0,81,0.00,,SCT,0.00,58.00,VWS V14.01,2013-12-06 17:18:00,
2013-12-06 11:20:00,2.4,-2.9,30.51,West,278,3.0,12.0,78,0.00,,OVC,0.00,163.00,VWS V15.00,2013-12-06 17:20:00,
2013-12-06 11:23:00,0.1,-4.6,30.51,West,280,7.0,10.0,80,0.00,,SCT,0.00,83.00,VWS V14.01,2013-12-06 17:23:00,
2013-12-06 11:25:00,2.4,-2.6,30.51,West,267,6.0,7.0,79,0.00,,OVC,0.00,114.00,VWS V15.00,2013-12-06 17:25:00,
2013-12-06 11:28:00,0.3,-4.4,30.51,West,271,3.0,7.0,80,0.00,,SCT,0.00,65.00,VWS V14.01,2013-12-06 17:28:00,
2013-12-06 11:30:00,2.4,-2.9,30.51,West,272,9.0,9.0,78,0.00,,OVC,0.00,171.00,VWS V15.00,2013-12-06 17:30:00,
2013-12-06 11:33:00,0.6,-4.1,30.51,WNW,290,8.0,10.0,80,0.00,,SCT,0.00,54.00,VWS V14.01,2013-12-06 17:33:00,
2013-12-06 11:35:00,2.8,-2.5,30.51,WNW,285,2.0,10.0,78,0.00,,OVC,0.00,151.00,VWS V15.00,2013-12-06 17:35:00,
2013-12-06 11:38:00,0.7,-4.0,30.51,West,278,10.0,10.0,80,0.00,,SCT,0.00,63.00,VWS V14.01,2013-12-06 17:38:00,
2013-12-06 11:40:00,2.8,-2.5,30.51,WSW,257,7.0,9.0,78,0.00,,OVC,0.00,176.00,VWS V15.00,2013-12-06 17:40:00,
2013-12-06 11:43:00,0.9,-4.1,30.51,WSW,258,6.0,7.0,79,0.00,,SCT,0.00,70.00,VWS V14.01,2013-12-06 17:43:00,
2013-12-06 11:45:00,2.7,-2.6,30.51,WNW,292,5.0,9.0,78,0.00,,OVC,0.00,165.00,VWS V15.00,2013-12-06 17:45:00,
2013-12-06 11:48:00,1.1,-3.9,30.51,West,281,5.0,9.0,79,0.00,,SCT,0.00,134.00,VWS V14.01,2013-12-06 17:48:00,
2013-12-06 11:50:00,2.7,-2.9,30.51,WSW,255,6.0,8.0,77,0.00,,OVC,0.00,192.00,VWS V15.00,2013-12-06 17:50:00,
2013-12-06 11:53:00,1.3,-3.7,30.51,West,264,6.0,9.0,79,0.00,,SCT,0.00,104.00,VWS V14.01,2013-12-06 17:53:00,
2013-12-06 11:55:00,2.8,-2.2,30.51,West,261,7.0,7.0,79,0.00,,OVC,0.00,195.00,VWS V15.00,2013-12-06 17:55:00,
2013-12-06 11:58:00,1.5,-3.5,30.52,West,271,7.0,10.0,79,0.00,,SCT,0.00,137.00,VWS V14.01,2013-12-06 17:58:00,
2013-12-06 12:00:00,2.9,-2.4,30.50,West,272,6.0,12.0,78,0.00,,OVC,0.00,190.00,VWS V15.00,2013-12-06 18:00:00,
2013-12-06 12:03:00,1.8,-3.2,30.51,West,273,6.0,7.0,79,0.00,,SCT,0.00,146.00,VWS V14.01,2013-12-06 18:03:00,
2013-12-06 12:05:00,3.4,-1.9,30.50,West,269,8.0,8.0,78,0.00,,OVC,0.00,114.00,VWS V15.00,2013-12-06 18:05:00,
2013-12-06 12:08:00,2.0,-3.0,30.51,West,265,6.0,10.0,79,0.00,,SCT,0.00,153.00,VWS V14.01,2013-12-06 18:08:00,
2013-12-06 12:10:00,3.4,-2.2,30.50,WSW,244,4.0,9.0,77,0.00,,OVC,0.00,183.00,VWS V15.00,2013-12-06 18:10:00,
2013-12-06 12:13:00,2.2,-3.1,30.51,West,262,6.0,10.0,78,0.00,,SCT,0.00,155.00,VWS V14.01,2013-12-06 18:13:00,
2013-12-06 12:15:00,3.5,-1.8,30.50,WSW,250,8.0,11.0,78,0.00,,OVC,0.00,185.00,VWS V15.00,2013-12-06 18:15:00,
2013-12-06 12:18:00,2.3,-3.0,30.51,WNW,282,6.0,12.0,78,0.00,,SCT,0.00,167.00,VWS V14.01,2013-12-06 18:18:00,
2013-12-06 12:20:00,3.4,-2.2,30.50,West,276,6.0,12.0,77,0.00,,OVC,0.00,188.00,VWS V15.00,2013-12-06 18:20:00,
2013-12-06 12:23:00,2.5,-2.8,30.51,West,261,5.0,6.0,78,0.00,,SCT,0.00,148.00,VWS V14.01,2013-12-06 18:23:00,
2013-12-06 12:25:00,3.4,-2.2,30.50,West,280,8.0,10.0,77,0.00,,OVC,0.00,188.00,VWS V15.00,2013-12-06 18:25:00,
2013-12-06 12:28:00,2.4,-2.9,30.51,WSW,254,4.0,7.0,78,0.00,,SCT,0.00,172.00,VWS V14.01,2013-12-06 18:28:00,
2013-12-06 12:30:00,3.5,-1.8,30.50,West,270,8.0,9.0,78,0.00,,OVC,0.00,193.00,VWS V15.00,2013-12-06 18:30:00,
2013-12-06 12:33:00,2.6,-2.4,30.51,West,265,7.0,10.0,79,0.00,,SCT,0.00,169.00,VWS V14.01,2013-12-06 18:33:00,
2013-12-06 12:35:00,3.3,-2.3,30.50,West,261,6.0,12.0,77,0.00,,OVC,0.00,195.00,VWS V15.00,2013-12-06 18:35:00,
2013-12-06 12:38:00,2.8,-2.5,30.51,WNW,283,6.0,8.0,78,0.00,,SCT,0.00,172.00,VWS V14.01,2013-12-06 18:38:00,
2013-12-06 12:40:00,3.5,-2.3,30.50,West,275,9.0,14.0,76,0.00,,OVC,0.00,200.00,VWS V15.00,2013-12-06 18:40:00,
2013-12-06 12:43:00,2.7,-2.6,30.51,WNW,286,5.0,8.0,78,0.00,,SCT,0.00,137.00,VWS V14.01,2013-12-06 18:43:00,
2013-12-06 12:45:00,3.4,-2.5,30.50,WNW,286,7.0,12.0,76,0.00,,OVC,0.00,200.00,VWS V15.00,2013-12-06 18:45:00,
2013-12-06 12:49:00,2.8,-2.5,30.51,WSW,257,6.0,8.0,78,0.00,,SCT,0.00,185.00,VWS V14.01,2013-12-06 18:49:00,
2013-12-06 12:50:00,3.3,-2.3,30.50,WNW,294,3.0,11.0,77,0.00,,OVC,0.00,200.00,VWS V15.00,2013-12-06 18:50:00,
2013-12-06 12:54:00,2.7,-2.6,30.51,WSW,252,4.0,7.0,78,0.00,,SCT,0.00,162.00,VWS V14.01,2013-12-06 18:54:00,
2013-12-06 12:55:00,3.5,-2.3,30.50,West,267,11.0,12.0,76,0.00,,OVC,0.00,206.00,VWS V15.00,2013-12-06 18:55:00,
2013-12-06 12:59:00,2.8,-2.5,30.51,WSW,248,10.0,10.0,78,0.00,,SCT,0.00,197.00,VWS V14.01,2013-12-06 18:59:00,
2013-12-06 13:00:00,3.3,-2.5,30.50,West,268,9.0,13.0,76,0.00,,OVC,0.00,211.00,VWS V15.00,2013-12-06 19:00:00,
2013-12-06 13:04:00,3.2,-2.1,30.51,West,261,6.0,8.0,78,0.00,,SCT,0.00,195.00,VWS V14.01,2013-12-06 19:04:00,
2013-12-06 13:05:00,3.2,-2.6,30.50,West,271,8.0,13.0,76,0.00,,OVC,0.00,199.00,VWS V15.00,2013-12-06 19:05:00,
2013-12-06 13:09:00,3.5,-2.1,30.50,West,265,5.0,9.0,77,0.00,,SCT,0.00,181.00,VWS V14.01,2013-12-06 19:09:00,
2013-12-06 13:10:00,3.2,-2.6,30.51,WSW,248,7.0,12.0,76,0.00,,OVC,0.00,204.00,VWS V15.00,2013-12-06 19:10:00,
2013-12-06 13:14:00,3.3,-2.0,30.50,West,273,4.0,10.0,78,0.00,,SCT,0.00,178.00,VWS V14.01,2013-12-06 19:14:00,
2013-12-06 13:15:00,3.4,-2.2,30.51,West,262,5.0,12.0,77,0.00,,OVC,0.00,211.00,VWS V15.00,2013-12-06 19:15:00,
2013-12-06 13:19:00,3.4,-2.2,30.50,West,267,8.0,10.0,77,0.00,,SCT,0.00,188.00,VWS V14.01,2013-12-06 19:19:00,
2013-12-06 13:20:00,3.5,-2.1,30.51,West,267,6.0,11.0,77,0.00,,OVC,0.00,216.00,VWS V15.00,2013-12-06 19:20:00,
2013-12-06 13:24:00,3.5,-1.8,30.50,West,264,6.0,10.0,78,0.00,,SCT,0.00,186.00,VWS V14.01,2013-12-06 19:24:00,
2013-12-06 13:25:00,3.2,-2.4,30.51,WSW,254,9.0,10.0,77,0.00,,OVC,0.00,213.00,VWS V15.00,2013-12-06 19:25:00,
2013-12-06 13:29:00,3.5,-2.1,30.50,West,262,5.0,8.0,77,0.00,,SCT,0.00,190.00,VWS V14.01,2013-12-06 19:29:00,
2013-12-06 13:30:00,3.0,-2.6,30.51,WNW,282,5.0,12.0,77,0.00,,OVC,0.00,218.00,VWS V15.00,2013-12-06 19:30:00,
2013-12-06 13:34:00,3.6,-2.0,30.50,West,267,10.0,12.0,77,0.00,,SCT,0.00,195.00,VWS V14.01,2013-12-06 19:34:00,
2013-12-06 13:35:00,3.1,-2.5,30.52,WNW,286,9.0,11.0,77,0.00,,OVC,0.00,214.00,VWS V15.00,2013-12-06 19:35:00,
2013-12-06 13:39:00,3.4,-2.2,30.50,WNW,290,9.0,11.0,77,0.00,,SCT,0.00,195.00,VWS V14.01,2013-12-06 19:39:00,
2013-12-06 13:40:00,3.3,-2.3,30.52,WNW,283,8.0,11.0,77,0.00,,OVC,0.00,202.00,VWS V15.00,2013-12-06 19:40:00,
2013-12-06 13:44:00,3.4,-2.5,30.50,WSW,240,7.0,10.0,76,0.00,,SCT,0.00,200.00,VWS V14.01,2013-12-06 19:44:00,
2013-12-06 13:45:00,3.0,-2.6,30.52,West,279,4.0,10.0,77,0.00,,OVC,0.00,127.00,VWS V15.00,2013-12-06 19:45:00,
2013-12-06 13:49:00,3.3,-2.5,30.50,WSW,258,6.0,9.0,76,0.00,,SCT,0.00,199.00,VWS V14.01,2013-12-06 19:49:00,
2013-12-06 13:50:00,2.8,-2.8,30.52,West,264,7.0,11.0,77,0.00,,OVC,0.00,44.00,VWS V15.00,2013-12-06 19:50:00,
2013-12-06 13:54:00,3.5,-2.1,30.50,WNW,287,7.0,7.0,77,0.00,,SCT,0.00,207.00,VWS V14.01,2013-12-06 19:54:00,
2013-12-06 13:55:00,2.6,-3.0,30.52,West,273,6.0,9.0,77,0.00,,OVC,0.00,199.00,VWS V15.00,2013-12-06 19:55:00,
2013-12-06 13:59:00,3.4,-2.5,30.50,West,263,6.0,13.0,76,0.00,,SCT,0.00,206.00,VWS V14.01,2013-12-06 19:59:00,
2013-12-06 14:00:00,2.4,-3.2,30.52,West,262,6.0,9.0,77,0.00,,OVC,0.00,39.00,VWS V15.00,2013-12-06 20:00:00,
2013-12-06 14:04:00,3.3,-2.5,30.50,WNW,285,10.0,11.0,76,0.00,,SCT,0.00,176.00,VWS V14.01,2013-12-06 20:04:00,
2013-12-06 14:05:00,2.2,-3.3,30.52,West,275,8.0,10.0,77,0.00,,OVC,0.00,69.00,VWS V15.00,2013-12-06 20:05:00,
2013-12-06 14:09:00,3.2,-2.4,30.50,West,269,10.0,12.0,77,0.00,,SCT,0.00,195.00,VWS V14.01,2013-12-06 20:09:00,
2013-12-06 14:10:00,2.1,-3.4,30.52,WNW,284,8.0,11.0,77,0.00,,OVC,0.00,44.00,VWS V15.00,2013-12-06 20:10:00,
2013-12-06 14:14:00,3.2,-2.4,30.50,WNW,287,6.0,12.0,77,0.00,,SCT,0.00,204.00,VWS V14.01,2013-12-06 20:14:00,
2013-12-06 14:15:00,1.9,-3.6,30.52,West,272,8.0,9.0,77,0.00,,OVC,0.00,77.00,VWS V15.00,2013-12-06 20:15:00,
2013-12-06 14:19:00,3.4,-2.2,30.51,West,270,6.0,8.0,77,0.00,,SCT,0.00,211.00,VWS V14.01,2013-12-06 20:19:00,
2013-12-06 14:20:00,1.8,-3.5,30.52,West,269,7.0,9.0,78,0.00,,OVC,0.00,172.00,VWS V15.00,2013-12-06 20:20:00,
2013-12-06 14:24:00,3.5,-2.1,30.51,West,265,7.0,10.0,77,0.00,,SCT,0.00,202.00,VWS V14.01,2013-12-06 20:24:00,
2013-12-06 14:25:00,1.7,-3.6,30.53,WNW,290,8.0,11.0,78,0.00,,OVC,0.00,153.00,VWS V15.00,2013-12-06 20:25:00,
2013-12-06 14:29:00,3.0,-2.6,30.51,WNW,282,8.0,12.0,77,0.00,,SCT,0.00,211.00,VWS V14.01,2013-12-06 20:29:00,
2013-12-06 14:30:00,1.7,-3.6,30.53,West,275,7.0,9.0,78,0.00,,OVC,0.00,148.00,VWS V15.00,2013-12-06 20:30:00,
2013-12-06 14:34:00,3.1,-2.5,30.52,West,270,8.0,11.0,77,0.00,,SCT,0.00,214.00,VWS V14.01,2013-12-06 20:34:00,
2013-12-06 14:35:00,1.7,-3.6,30.53,West,269,5.0,7.0,78,0.00,,OVC,0.00,142.00,VWS V15.00,2013-12-06 20:35:00,
2013-12-06 14:39:00,3.2,-2.4,30.52,WNW,284,6.0,11.0,77,0.00,,SCT,0.00,213.00,VWS V14.01,2013-12-06 20:39:00,
2013-12-06 14:40:00,1.4,-3.8,30.54,West,269,10.0,10.0,78,0.00,,OVC,0.00,135.00,VWS V15.00,2013-12-06 20:40:00,
2013-12-06 14:44:00,3.1,-2.7,30.52,West,281,8.0,10.0,76,0.00,,SCT,0.00,142.00,VWS V14.01,2013-12-06 20:44:00,
2013-12-06 14:45:00,1.3,-4.0,30.54,West,270,6.0,10.0,78,0.00,,OVC,0.00,26.00,VWS V15.00,2013-12-06 20:45:00,
2013-12-06 14:49:00,3.0,-2.6,30.52,West,277,5.0,11.0,77,0.00,,SCT,0.00,202.00,VWS V14.01,2013-12-06 20:49:00,
2013-12-06 14:50:00,1.0,-4.2,30.54,West,261,8.0,9.0,78,0.00,,OVC,0.00,91.00,VWS V15.00,2013-12-06 20:50:00,
2013-12-06 14:54:00,2.8,-2.8,30.52,West,275,8.0,9.0,77,0.00,,SCT,0.00,139.00,VWS V14.01,2013-12-06 20:54:00,
2013-12-06 14:55:00,0.9,-4.3,30.54,West,260,6.0,10.0,78,0.00,,OVC,0.00,76.00,VWS V15.00,2013-12-06 20:55:00,
2013-12-06 14:59:00,2.5,-3.0,30.52,West,267,5.0,9.0,77,0.00,,SCT,0.00,39.00,VWS V14.01,2013-12-06 20:59:00,
2013-12-06 15:00:00,0.5,-4.7,30.54,WSW,257,10.0,10.0,78,0.00,,OVC,0.00,67.00,VWS V15.00,2013-12-06 21:00:00,
2013-12-06 15:04:00,2.2,-3.3,30.52,West,267,8.0,9.0,77,0.00,,SCT,0.00,144.00,VWS V14.01,2013-12-06 21:04:00,
2013-12-06 15:05:00,0.4,-4.8,30.54,West,277,9.0,10.0,78,0.00,,OVC,0.00,12.00,VWS V15.00,2013-12-06 21:05:00,
2013-12-06 15:09:00,2.2,-3.3,30.52,West,272,8.0,11.0,77,0.00,,SCT,0.00,109.00,VWS V14.01,2013-12-06 21:09:00,
2013-12-06 15:10:00,0.3,-4.9,30.54,West,279,5.0,9.0,78,0.00,,OVC,0.00,5.00,VWS V15.00,2013-12-06 21:10:00,
2013-12-06 15:14:00,2.1,-3.4,30.52,West,259,8.0,9.0,77,0.00,,SCT,0.00,84.00,VWS V14.01,2013-12-06 21:14:00,
2013-12-06 15:15:00,0.1,-5.2,30.54,West,269,6.0,7.0,78,0.00,,OVC,0.00,0.00,VWS V15.00,2013-12-06 21:15:00,
2013-12-06 15:19:00,1.8,-3.5,30.53,West,275,6.0,9.0,78,0.00,,SCT,0.00,172.00,VWS V14.01,2013-12-06 21:19:00,
2013-12-06 15:20:00,-0.3,-5.2,30.55,West,264,3.0,6.0,79,0.00,,OVC,0.00,0.00,VWS V15.00,2013-12-06 21:20:00,
2013-12-06 15:24:00,1.8,-3.5,30.53,WNW,288,3.0,11.0,78,0.00,,SCT,0.00,156.00,VWS V14.01,2013-12-06 21:24:00,
2013-12-06 15:25:00,-0.7,-5.6,30.55,West,270,3.0,6.0,79,0.00,,OVC,0.00,0.00,VWS V15.00,2013-12-06 21:25:00,
2013-12-06 15:29:00,1.7,-3.6,30.53,West,278,6.0,9.0,78,0.00,,SCT,0.00,144.00,VWS V14.01,2013-12-06 21:29:00,
2013-12-06 15:30:00,-0.9,-5.8,30.55,West,260,4.0,6.0,79,0.00,,OVC,0.00,0.00,VWS V15.00,2013-12-06 21:30:00,
2013-12-06 15:35:00,1.7,-3.6,30.53,West,271,5.0,7.0,78,0.00,,SCT,0.00,142.00,VWS V14.01,2013-12-06 21:35:00,
2013-12-06 15:40:00,1.6,-3.7,30.53,West,269,6.0,7.0,78,0.00,,SCT,0.00,139.00,VWS V14.01,2013-12-06 21:40:00,
2013-12-06 15:45:00,1.4,-3.8,30.54,West,270,5.0,10.0,78,0.00,,SCT,0.00,37.00,VWS V14.01,2013-12-06 21:45:00,
2013-12-06 15:50:00,1.1,-4.1,30.54,WSW,242,6.0,7.0,78,0.00,,SCT,0.00,46.00,VWS V14.01,2013-12-06 21:50:00,
2013-12-06 15:55:00,0.9,-4.3,30.54,West,263,5.0,9.0,78,0.00,,SCT,0.00,90.00,VWS V14.01,2013-12-06 21:55:00,
2013-12-06 16:00:00,0.7,-4.5,30.54,West,268,5.0,9.0,78,0.00,,SCT,0.00,74.00,VWS V14.01,2013-12-06 22:00:00,
2013-12-06 16:05:00,0.5,-4.7,30.54,WSW,244,8.0,10.0,78,0.00,,SCT,0.00,16.00,VWS V14.01,2013-12-06 22:05:00,
2013-12-06 16:10:00,0.4,-4.8,30.54,West,276,9.0,9.0,78,0.00,,SCT,0.00,7.00,VWS V14.01,2013-12-06 22:10:00,
2013-12-06 16:15:00,0.1,-5.1,30.54,West,267,5.0,7.0,78,0.00,,SCT,0.00,5.00,VWS V14.01,2013-12-06 22:15:00,
2013-12-06 16:20:00,-0.2,-5.2,30.55,West,271,4.0,6.0,79,0.00,,SCT,0.00,0.00,VWS V14.01,2013-12-06 22:20:00,
2013-12-06 16:25:00,-0.6,-5.5,30.55,West,266,4.0,6.0,79,0.00,,SCT,0.00,0.00,VWS V14.01,2013-12-06 22:25:00,
2013-12-06 16:30:00,-0.9,-5.8,30.55,WSW,240,4.0,5.0,79,0.00,,SCT,0.00,0.00,VWS V14.01,2013-12-06 22:30:00,
2013-12-06 16:35:00,-1.0,-5.7,30.55,West,267,5.0,7.0,80,0.00,,SCT,0.00,0.00,VWS V14.01,2013-12-06 22:35:00,
2013-12-06 16:40:00,-1.1,-5.8,30.55,WSW,255,4.0,8.0,80,0.00,,SCT,0.00,0.00,VWS V14.01,2013-12-06 22:40:00,
2013-12-06 16:45:00,-1.0,-5.7,30.55,West,273,4.0,8.0,80,0.00,,SCT,0.00,0.00,VWS V14.01,2013-12-06 22:45:00,
2013-12-06 16:50:00,-1.1,-5.8,30.55,WSW,258,5.0,7.0,80,0.00,,SCT,0.00,0.00,VWS V14.01,2013-12-06 22:50:00,
2013-12-06 16:55:00,-1.3,-6.0,30.56,West,264,5.0,7.0,80,0.00,,SCT,0.00,0.00,VWS V14.01,2013-12-06 22:55:00,
2013-12-06 17:00:00,-1.5,-6.2,30.56,West,262,4.0,6.0,80,0.00,,SCT,0.00,0.00,VWS V14.01,2013-12-06 23:00:00,
2013-12-06 17:05:00,-1.8,-6.4,30.56,West,261,5.0,6.0,80,0.00,,SCT,0.00,0.00,VWS V14.01,2013-12-06 23:05:00,
2013-12-06 17:10:00,-1.8,-6.4,30.56,West,275,8.0,8.0,80,0.00,,SCT,0.00,0.00,VWS V14.01,2013-12-06 23:10:00,
2013-12-06 17:15:00,-1.8,-6.4,30.56,West,263,6.0,7.0,80,0.00,,SCT,0.00,0.00,VWS V14.01,2013-12-06 23:15:00,
2013-12-06 17:20:00,-1.8,-6.4,30.56,West,261,4.0,8.0,80,0.00,,SCT,0.00,0.00,VWS V14.01,2013-12-06 23:20:00,
2013-12-06 17:25:00,-1.9,-6.6,30.56,West,269,5.0,7.0,80,0.00,,SCT,0.00,0.00,VWS V14.01,2013-12-06 23:25:00,
2013-12-06 17:30:00,-1.9,-6.6,30.56,West,263,6.0,6.0,80,0.00,,SCT,0.00,0.00,VWS V14.01,2013-12-06 23:30:00,
2013-12-06 17:35:00,-2.2,-6.8,30.57,WSW,257,3.0,5.0,80,0.00,,SCT,0.00,0.00,VWS V14.01,2013-12-06 23:35:00,
2013-12-06 17:40:00,-3.1,-8.0,30.57,WSW,258,3.0,4.0,79,0.00,,SCT,0.00,0.00,VWS V14.01,2013-12-06 23:40:00,
2013-12-06 17:45:00,-3.4,-7.8,30.57,West,261,3.0,4.0,81,0.00,,SCT,0.00,0.00,VWS V14.01,2013-12-06 23:45:00,
2013-12-06 17:50:00,-3.6,-7.9,30.58,West,269,5.0,6.0,81,0.00,,SCT,0.00,0.00,VWS V14.01,2013-12-06 23:50:00,
2013-12-06 17:55:00,-3.2,-7.3,30.58,West,266,5.0,6.0,82,0.00,,SCT,0.00,0.00,VWS V14.01,2013-12-06 23:55:00,
2013-12-06 18:00:00,-3.2,-7.3,30.58,West,266,5.0,7.0,82,0.00,,SCT,0.00,0.00,VWS V14.01,2013-12-07 00:00:00,
2013-12-06 18:05:00,-3.3,-7.7,30.58,West,263,5.0,6.0,81,0.00,,SCT,0.00,0.00,VWS V14.01,2013-12-07 00:05:00,
2013-12-06 18:10:00,-3.2,-7.3,30.58,West,259,5.0,6.0,82,0.00,,SCT,0.00,0.00,VWS V14.01,2013-12-07 00:10:00,
2013-12-06 18:15:00,-3.3,-7.7,30.59,West,271,6.0,7.0,81,0.00,,SCT,0.00,0.00,VWS V14.01,2013-12-07 00:15:00,
2013-12-06 18:20:00,-3.5,-7.9,30.59,West,269,4.0,5.0,81,0.00,,SCT,0.00,0.00,VWS V14.01,2013-12-07 00:20:00,
2013-12-06 18:25:00,-5.2,-9.3,30.61,West,269,3.0,4.0,82,0.00,,OVC,0.00,0.00,VWS V15.00,2013-12-07 00:25:00,
2013-12-06 18:26:00,-3.7,-8.1,30.58,West,259,6.0,6.0,81,0.00,,SCT,0.00,0.00,VWS V14.01,2013-12-07 00:26:00,
2013-12-06 18:30:00,-5.0,-9.1,30.61,West,269,5.0,5.0,82,0.00,,OVC,0.00,0.00,VWS V15.00,2013-12-07 00:30:00,
2013-12-06 18:31:00,-3.8,-8.1,30.59,West,277,6.0,6.0,81,0.00,,SCT,0.00,0.00,VWS V14.01,2013-12-07 00:31:00,
2013-12-06 18:35:00,-5.2,-9.3,30.61,West,270,4.0,5.0,82,0.00,,OVC,0.00,0.00,VWS V15.00,2013-12-07 00:35:00,
2013-12-06 18:36:00,-3.7,-7.8,30.59,West,266,2.0,6.0,82,0.00,,SCT,0.00,0.00,VWS V14.01,2013-12-07 00:36:00,
2013-12-06 18:40:00,-5.5,-9.8,30.61,West,268,4.0,5.0,81,0.00,,OVC,0.00,0.00,VWS V15.00,2013-12-07 00:40:00,
2013-12-06 18:41:00,-3.8,-8.1,30.59,West,267,3.0,6.0,81,0.00,,SCT,0.00,0.00,VWS V14.01,2013-12-07 00:41:00,
2013-12-06 18:45:00,-5.8,-10.1,30.61,West,270,5.0,6.0,81,0.00,,OVC,0.00,0.00,VWS V15.00,2013-12-07 00:45:00,
2013-12-06 18:46:00,-3.9,-8.0,30.59,West,265,3.0,4.0,82,0.00,,SCT,0.00,0.00,VWS V14.01,2013-12-07 00:46:00,
2013-12-06 18:50:00,-6.3,-10.6,30.61,West,267,4.0,5.0,81,0.00,,OVC,0.00,0.00,VWS V15.00,2013-12-07 00:50:00,
2013-12-06 18:51:00,-4.0,-8.4,30.60,West,266,4.0,4.0,81,0.00,,SCT,0.00,0.00,VWS V14.01,2013-12-07 00:51:00,
2013-12-06 18:55:00,-6.5,-10.8,30.61,West,270,4.0,5.0,81,0.00,,OVC,0.00,0.00,VWS V15.00,2013-12-07 00:55:00,
2013-12-06 18:56:00,-4.2,-8.5,30.60,West,269,2.0,5.0,81,0.00,,SCT,0.00,0.00,VWS V14.01,2013-12-07 00:56:00,
2013-12-06 19:00:00,-6.4,-10.4,30.61,West,273,4.0,5.0,82,0.00,,OVC,0.00,0.00,VWS V15.00,2013-12-07 01:00:00,
2013-12-06 19:01:00,-4.4,-8.7,30.60,West,270,2.0,4.0,81,0.00,,SCT,0.00,0.00,VWS V14.01,2013-12-07 01:01:00,
2013-12-06 19:05:00,-6.1,-10.1,30.61,West,274,4.0,6.0,82,0.00,,OVC,0.00,0.00,VWS V15.00,2013-12-07 01:05:00,
2013-12-06 19:06:00,-4.6,-8.9,30.60,West,272,3.0,4.0,81,0.00,,SCT,0.00,0.00,VWS V14.01,2013-12-07 01:06:00,
2013-12-06 19:11:00,-5.0,-9.3,30.60,West,267,4.0,5.0,81,0.00,,SCT,0.00,0.00,VWS V14.01,2013-12-07 01:11:00,
2013-12-06 19:15:00,-6.2,-10.2,30.61,West,272,3.0,5.0,82,0.00,,OVC,0.00,0.00,VWS V15.00,2013-12-07 01:15:00,
2013-12-06 19:16:00,-5.2,-9.5,30.60,West,269,2.0,5.0,81,0.00,,SCT,0.00,0.00,VWS V14.01,2013-12-07 01:16:00,
2013-12-06 19:20:00,-6.4,-10.4,30.61,West,272,3.0,5.0,82,0.00,,OVC,0.00,0.00,VWS V15.00,2013-12-07 01:20:00,
2013-12-06 19:21:00,-5.2,-9.3,30.61,West,271,4.0,5.0,82,0.00,,SCT,0.00,0.00,VWS V14.01,2013-12-07 01:21:00,
2013-12-06 19:25:00,-7.0,-11.3,30.62,West,272,3.0,5.0,81,0.00,,OVC,0.00,0.00,VWS V15.00,2013-12-07 01:25:00,
2013-12-06 19:26:00,-5.2,-9.3,30.61,West,269,3.0,4.0,82,0.00,,SCT,0.00,0.00,VWS V14.01,2013-12-07 01:26:00,
2013-12-06 19:30:00,-7.2,-11.5,30.62,West,271,3.0,5.0,81,0.00,,OVC,0.00,0.00,VWS V15.00,2013-12-07 01:30:00,
2013-12-06 19:31:00,-5.0,-9.1,30.61,West,271,3.0,4.0,82,0.00,,SCT,0.00,0.00,VWS V14.01,2013-12-07 01:31:00,
2013-12-06 19:35:00,-7.3,-11.3,30.62,West,272,3.0,5.0,82,0.00,,OVC,0.00,0.00,VWS V15.00,2013-12-07 01:35:00,
2013-12-06 19:36:00,-5.2,-9.3,30.61,West,269,4.0,5.0,82,0.00,,SCT,0.00,0.00,VWS V14.01,2013-12-07 01:36:00,
2013-12-06 19:40:00,-7.2,-11.2,30.62,West,271,3.0,5.0,82,0.00,,OVC,0.00,0.00,VWS V15.00,2013-12-07 01:40:00,
2013-12-06 19:41:00,-5.4,-9.7,30.61,West,267,5.0,5.0,81,0.00,,SCT,0.00,0.00,VWS V14.01,2013-12-07 01:41:00,
2013-12-06 19:45:00,-7.2,-11.2,30.62,West,270,5.0,5.0,82,0.00,,OVC,0.00,0.00,VWS V15.00,2013-12-07 01:45:00,
2013-12-06 19:46:00,-5.8,-10.1,30.61,West,269,4.0,6.0,81,0.00,,SCT,0.00,0.00,VWS V14.01,2013-12-07 01:46:00,
2013-12-06 19:50:00,-7.0,-11.0,30.62,West,279,5.0,6.0,82,0.00,,OVC,0.00,0.00,VWS V15.00,2013-12-07 01:50:00,
2013-12-06 19:51:00,-6.3,-10.6,30.61,West,268,4.0,5.0,81,0.00,,SCT,0.00,0.00,VWS V14.01,2013-12-07 01:51:00,
2013-12-06 19:55:00,-6.9,-10.9,30.63,West,273,5.0,7.0,82,0.00,,OVC,0.00,0.00,VWS V15.00,2013-12-07 01:55:00,
2013-12-06 19:56:00,-6.5,-10.8,30.61,West,270,4.0,5.0,81,0.00,,SCT,0.00,0.00,VWS V14.01,2013-12-07 01:56:00,
2013-12-06 20:00:00,-6.8,-10.8,30.63,West,272,5.0,7.0,82,0.00,,OVC,0.00,0.00,VWS V15.00,2013-12-07 02:00:00,
2013-12-06 20:01:00,-6.4,-10.4,30.61,West,274,3.0,5.0,82,0.00,,SCT,0.00,0.00,VWS V14.01,2013-12-07 02:01:00,
2013-12-06 20:05:00,-6.9,-11.2,30.63,West,273,6.0,6.0,81,0.00,,OVC,0.00,0.00,VWS V15.00,2013-12-07 02:05:00,
2013-12-06 20:06:00,-6.1,-10.1,30.61,West,274,5.0,6.0,82,0.00,,SCT,0.00,0.00,VWS V14.01,2013-12-07 02:06:00,
2013-12-06 20:10:00,-7.0,-11.3,30.63,WNW,283,4.0,6.0,81,0.00,,OVC,0.00,0.00,VWS V15.00,2013-12-07 02:10:00,
2013-12-06 20:11:00,-6.0,-10.1,30.61,West,273,4.0,6.0,82,0.00,,SCT,0.00,0.00,VWS V14.01,2013-12-07 02:11:00,
2013-12-06 20:15:00,-7.1,-11.4,30.63,West,277,4.0,6.0,81,0.00,,OVC,0.00,0.00,VWS V15.00,2013-12-07 02:15:00,
2013-12-06 20:16:00,-6.2,-10.2,30.61,West,272,4.0,5.0,82,0.00,,SCT,0.00,0.00,VWS V14.01,2013-12-07 02:16:00,
2013-12-06 20:20:00,-7.2,-11.5,30.63,West,274,3.0,7.0,81,0.00,,OVC,0.00,0.00,VWS V15.00,2013-12-07 02:20:00,
2013-12-06 20:21:00,-6.4,-10.4,30.61,West,272,3.0,5.0,82,0.00,,SCT,0.00,0.00,VWS V14.01,2013-12-07 02:21:00,
2013-12-06 20:25:00,-7.2,-11.5,30.63,WNW,286,5.0,6.0,81,0.00,,OVC,0.00,0.00,VWS V15.00,2013-12-07 02:25:00,
2013-12-06 20:26:00,-7.0,-11.3,30.62,West,272,4.0,5.0,81,0.00,,SCT,0.00,0.00,VWS V14.01,2013-12-07 02:26:00,
2013-12-06 20:30:00,-7.5,-11.8,30.63,West,272,4.0,7.0,81,0.00,,OVC,0.00,0.00,VWS V15.00,2013-12-07 02:30:00,
2013-12-06 20:31:00,-7.2,-11.5,30.62,West,271,3.0,5.0,81,0.00,,SCT,0.00,0.00,VWS V14.01,2013-12-07 02:31:00,
2013-12-06 20:35:00,-7.5,-11.8,30.63,West,279,5.0,7.0,81,0.00,,OVC,0.00,0.00,VWS V15.00,2013-12-07 02:35:00,
2013-12-06 20:36:00,-7.3,-11.3,30.62,West,272,3.0,5.0,82,0.00,,SCT,0.00,0.00,VWS V14.01,2013-12-07 02:36:00,
2013-12-06 20:40:00,-7.6,-11.9,30.63,West,280,5.0,6.0,81,0.00,,OVC,0.00,0.00,VWS V15.00,2013-12-07 02:40:00,
2013-12-06 20:41:00,-7.2,-11.2,30.62,West,270,4.0,4.0,82,0.00,,SCT,0.00,0.00,VWS V14.01,2013-12-07 02:41:00,
2013-12-06 20:45:00,-7.4,-11.7,30.64,West,267,3.0,6.0,81,0.00,,OVC,0.00,0.00,VWS V15.00,2013-12-07 02:45:00,
2013-12-06 20:46:00,-7.2,-11.2,30.62,West,270,4.0,5.0,82,0.00,,SCT,0.00,0.00,VWS V14.01,2013-12-07 02:46:00,
2013-12-06 20:50:00,-7.3,-11.6,30.64,WNW,282,3.0,7.0,81,0.00,,OVC,0.00,0.00,VWS V15.00,2013-12-07 02:50:00,
2013-12-06 20:51:00,-7.0,-11.0,30.63,West,274,3.0,5.0,82,0.00,,SCT,0.00,0.00,VWS V14.01,2013-12-07 02:51:00,
2013-12-06 20:55:00,-7.3,-11.6,30.64,WNW,282,5.0,6.0,81,0.00,,OVC,0.00,0.00,VWS V15.00,2013-12-07 02:55:00,
2013-12-06 20:56:00,-6.9,-10.9,30.63,West,273,7.0,7.0,82,0.00,,SCT,0.00,0.00,VWS V14.01,2013-12-07 02:56:00,
2013-12-06 21:00:00,-7.5,-11.8,30.64,West,273,3.0,7.0,81,0.00,,OVC,0.00,0.00,VWS V15.00,2013-12-07 03:00:00,
2013-12-06 21:02:00,-6.8,-11.1,30.63,West,278,5.0,5.0,81,0.00,,SCT,0.00,0.00,VWS V14.01,2013-12-07 03:02:00,
2013-12-06 21:05:00,-7.6,-11.9,30.64,West,273,4.0,6.0,81,0.00,,OVC,0.00,0.00,VWS V15.00,2013-12-07 03:05:00,
2013-12-06 21:07:00,-6.9,-11.2,30.63,West,273,4.0,6.0,81,0.00,,SCT,0.00,0.00,VWS V14.01,2013-12-07 03:07:00,
2013-12-06 21:10:00,-7.7,-12.0,30.64,West,278,4.0,7.0,81,0.00,,OVC,0.00,0.00,VWS V15.00,2013-12-07 03:10:00,
2013-12-06 21:12:00,-7.0,-11.3,30.63,WNW,285,3.0,4.0,81,0.00,,SCT,0.00,0.00,VWS V14.01,2013-12-07 03:12:00,
2013-12-06 21:15:00,-7.8,-12.1,30.64,West,275,4.0,7.0,81,0.00,,OVC,0.00,0.00,VWS V15.00,2013-12-07 03:15:00,
2013-12-06 21:17:00,-7.1,-11.4,30.63,West,276,5.0,5.0,81,0.00,,SCT,0.00,0.00,VWS V14.01,2013-12-07 03:17:00,
2013-12-06 21:20:00,-7.7,-12.0,30.65,West,276,6.0,6.0,81,0.00,,OVC,0.00,0.00,VWS V15.00,2013-12-07 03:20:00,
2013-12-06 21:22:00,-7.2,-11.5,30.63,West,276,4.0,6.0,81,0.00,,SCT,0.00,0.00,VWS V14.01,2013-12-07 03:22:00,
2013-12-06 21:25:00,-7.8,-12.1,30.65,West,278,4.0,6.0,81,0.00,,OVC,0.00,0.00,VWS V15.00,2013-12-07 03:25:00,
2013-12-06 21:27:00,-7.3,-11.6,30.63,West,277,2.0,5.0,81,0.00,,SCT,0.00,0.00,VWS V14.01,2013-12-07 03:27:00,
2013-12-06 21:30:00,-7.6,-11.9,30.65,West,276,3.0,7.0,81,0.00,,OVC,0.00,0.00,VWS V15.00,2013-12-07 03:30:00,
2013-12-06 21:32:00,-7.5,-11.8,30.63,WNW,288,5.0,5.0,81,0.00,,SCT,0.00,0.00,VWS V14.01,2013-12-07 03:32:00,
2013-12-06 21:35:00,-7.6,-11.9,30.64,West,276,4.0,7.0,81,0.00,,OVC,0.00,0.00,VWS V15.00,2013-12-07 03:35:00,
2013-12-06 21:37:00,-7.5,-11.8,30.64,West,277,4.0,5.0,81,0.00,,SCT,0.00,0.00,VWS V14.01,2013-12-07 03:37:00,
2013-12-06 21:40:00,-7.4,-11.7,30.65,West,267,4.0,6.0,81,0.00,,OVC,0.00,0.00,VWS V15.00,2013-12-07 03:40:00,
2013-12-06 21:42:00,-7.5,-11.8,30.63,West,280,4.0,6.0,81,0.00,,SCT,0.00,0.00,VWS V14.01,2013-12-07 03:42:00,
2013-12-06 21:45:00,-7.4,-11.7,30.65,WNW,286,6.0,7.0,81,0.00,,OVC,0.00,0.00,VWS V15.00,2013-12-07 03:45:00,
2013-12-06 21:47:00,-7.4,-11.7,30.63,West,280,3.0,5.0,81,0.00,,SCT,0.00,0.00,VWS V14.01,2013-12-07 03:47:00,
2013-12-06 21:50:00,-7.5,-11.8,30.65,West,274,5.0,7.0,81,0.00,,OVC,0.00,0.00,VWS V15.00,2013-12-07 03:50:00,
2013-12-06 21:52:00,-7.3,-11.6,30.64,West,276,6.0,6.0,81,0.00,,SCT,0.00,0.00,VWS V14.01,2013-12-07 03:52:00,
2013-12-06 21:55:00,-7.6,-11.9,30.65,West,273,5.0,8.0,81,0.00,,OVC,0.00,0.00,VWS V15.00,2013-12-07 03:55:00,
2013-12-06 21:57:00,-7.3,-11.6,30.64,WNW,285,6.0,6.0,81,0.00,,SCT,0.00,0.00,VWS V14.01,2013-12-07 03:57:00,
2013-12-06 22:00:00,-7.7,-12.0,30.65,WSW,258,3.0,7.0,81,0.00,,OVC,0.00,0.00,VWS V15.00,2013-12-07 04:00:00,
2013-12-06 22:02:00,-7.5,-11.8,30.64,West,277,5.0,5.0,81,0.00,,SCT,0.00,0.00,VWS V14.01,2013-12-07 04:02:00,
2013-12-06 22:05:00,-7.9,-12.2,30.66,West,272,3.0,5.0,81,0.00,,OVC,0.00,0.00,VWS V15.00,2013-12-07 04:05:00,
2013-12-06 22:07:00,-7.6,-11.9,30.64,West,280,5.0,5.0,81,0.00,,SCT,0.00,0.00,VWS V14.01,2013-12-07 04:07:00,
2013-12-06 22:10:00,-7.8,-12.1,30.65,West,270,4.0,9.0,81,0.00,,OVC,0.00,0.00,VWS V15.00,2013-12-07 04:10:00,
2013-12-06 22:12:00,-7.6,-11.9,30.64,West,280,5.0,6.0,81,0.00,,SCT,0.00,0.00,VWS V14.01,2013-12-07 04:12:00,
2013-12-06 22:15:00,-7.6,-11.9,30.66,West,275,5.0,7.0,81,0.00,,OVC,0.00,0.00,VWS V15.00,2013-12-07 04:15:00,
2013-12-06 22:17:00,-7.8,-12.1,30.65,West,275,6.0,6.0,81,0.00,,SCT,0.00,0.00,VWS V14.01,2013-12-07 04:17:00,
2013-12-06 22:20:00,-7.6,-11.9,30.66,West,275,3.0,7.0,81,0.00,,OVC,0.00,0.00,VWS V15.00,2013-12-07 04:20:00,
2013-12-06 22:22:00,-7.7,-12.0,30.65,West,273,5.0,6.0,81,0.00,,SCT,0.00,0.00,VWS V14.01,2013-12-07 04:22:00,
2013-12-06 22:25:00,-7.8,-12.1,30.66,West,269,3.0,5.0,81,0.00,,OVC,0.00,0.00,VWS V15.00,2013-12-07 04:25:00,
2013-12-06 22:27:00,-7.7,-12.0,30.65,West,267,5.0,6.0,81,0.00,,SCT,0.00,0.00,VWS V14.01,2013-12-07 04:27:00,
2013-12-06 22:30:00,-7.9,-12.2,30.66,West,271,5.0,6.0,81,0.00,,OVC,0.00,0.00,VWS V15.00,2013-12-07 04:30:00,
2013-12-06 22:32:00,-7.6,-11.9,30.65,West,275,5.0,6.0,81,0.00,,SCT,0.00,0.00,VWS V14.01,2013-12-07 04:32:00,
2013-12-06 22:35:00,-8.0,-12.5,30.66,West,274,5.0,6.0,80,0.00,,OVC,0.00,0.00,VWS V15.00,2013-12-07 04:35:00,
2013-12-06 22:37:00,-7.6,-11.9,30.64,West,273,4.0,5.0,81,0.00,,SCT,0.00,0.00,VWS V14.01,2013-12-07 04:37:00,
2013-12-06 22:40:00,-8.1,-12.6,30.66,West,267,5.0,6.0,80,0.00,,OVC,0.00,0.00,VWS V15.00,2013-12-07 04:40:00,
2013-12-06 22:42:00,-7.4,-11.7,30.64,West,272,5.0,7.0,81,0.00,,SCT,0.00,0.00,VWS V14.01,2013-12-07 04:42:00,
2013-12-06 22:45:00,-8.1,-12.6,30.66,West,272,6.0,6.0,80,0.00,,OVC,0.00,0.00,VWS V15.00,2013-12-07 04:45:00,
2013-12-06 22:47:00,-7.5,-11.8,30.65,West,275,6.0,6.0,81,0.00,,SCT,0.00,0.00,VWS V14.01,2013-12-07 04:47:00,
2013-12-06 22:50:00,-8.2,-12.7,30.66,West,271,3.0,6.0,80,0.00,,OVC,0.00,0.00,VWS V15.00,2013-12-07 04:50:00,
2013-12-06 22:52:00,-7.6,-11.9,30.65,West,263,3.0,6.0,81,0.00,,SCT,0.00,0.00,VWS V14.01,2013-12-07 04:52:00,
2013-12-06 22:55:00,-8.3,-12.8,30.67,West,267,3.0,5.0,80,0.00,,OVC,0.00,0.00,VWS V15.00,2013-12-07 04:55:00,
2013-12-06 22:57:00,-7.6,-11.9,30.65,West,274,4.0,5.0,81,0.00,,SCT,0.00,0.00,VWS V14.01,2013-12-07 04:57:00,
2013-12-06 23:00:00,-8.4,-12.9,30.67,West,274,4.0,5.0,80,0.00,,OVC,0.00,0.00,VWS V15.00,2013-12-07 05:00:00,
2013-12-06 23:01:00,-7.7,-12.0,30.65,WSW,257,3.0,7.0,81,0.00,,SCT,0.00,0.00,VWS V14.01,2013-12-07 05:01:00,
2013-12-06 23:02:00,-7.7,-12.0,30.65,West,263,3.0,4.0,81,0.00,,SCT,0.00,0.00,VWS V14.01,2013-12-07 05:02:00,
2013-12-06 23:04:00,-7.9,-12.4,30.66,West,274,3.0,5.0,80,0.00,,SCT,0.00,0.00,VWS V14.01,2013-12-07 05:04:00,
2013-12-06 23:05:00,-8.5,-13.0,30.67,West,277,4.0,6.0,80,0.00,,OVC,0.00,0.00,VWS V15.00,2013-12-07 05:05:00,
2013-12-06 23:07:00,-7.9,-12.2,30.66,West,272,2.0,4.0,81,0.00,,SCT,0.00,0.00,VWS V14.01,2013-12-07 05:07:00,
2013-12-06 23:10:00,-8.7,-13.2,30.67,West,269,4.0,5.0,80,0.00,,OVC,0.00,0.00,VWS V15.00,2013-12-07 05:10:00,
2013-12-06 23:12:00,-7.7,-12.0,30.66,West,272,5.0,5.0,81,0.00,,SCT,0.00,0.00,VWS V14.01,2013-12-07 05:12:00,
2013-12-06 23:15:00,-8.8,-13.3,30.67,West,273,4.0,5.0,80,0.00,,OVC,0.00,0.00,VWS V15.00,2013-12-07 05:15:00,
2013-12-06 23:17:00,-7.6,-11.9,30.66,West,274,4.0,5.0,81,0.00,,SCT,0.00,0.00,VWS V14.01,2013-12-07 05:17:00,
2013-12-06 23:18:00,-7.6,-11.9,30.66,West,278,5.0,7.0,81,0.00,,SCT,0.00,0.00,VWS V14.01,2013-12-07 05:18:00,
2013-12-06 23:20:00,-8.9,-13.4,30.67,West,264,4.0,5.0,80,0.00,,OVC,0.00,0.00,VWS V15.00,2013-12-07 05:20:00,
2013-12-06 23:23:00,-7.7,-12.0,30.66,WNW,282,4.0,5.0,81,0.00,,SCT,0.00,0.00,VWS V14.01,2013-12-07 05:23:00,
2013-12-06 23:25:00,-9.0,-13.5,30.67,West,265,2.0,4.0,80,0.00,,OVC,0.00,0.00,VWS V15.00,2013-12-07 05:25:00,
2013-12-06 23:28:00,-7.8,-12.1,30.66,WSW,250,3.0,6.0,81,0.00,,SCT,0.00,0.00,VWS V14.01,2013-12-07 05:28:00,
2013-12-06 23:30:00,-9.1,-13.6,30.67,West,269,4.0,5.0,80,0.00,,OVC,0.00,0.00,VWS V15.00,2013-12-07 05:30:00,
2013-12-06 23:33:00,-7.9,-12.2,30.66,West,279,3.0,5.0,81,0.00,,SCT,0.00,0.00,VWS V14.01,2013-12-07 05:33:00,
2013-12-06 23:35:00,-9.2,-13.7,30.67,West,273,5.0,5.0,80,0.00,,OVC,0.00,0.00,VWS V15.00,2013-12-07 05:35:00,
2013-12-06 23:38:00,-8.0,-12.5,30.66,West,269,3.0,6.0,80,0.00,,SCT,0.00,0.00,VWS V14.01,2013-12-07 05:38:00,
2013-12-06 23:40:00,-9.3,-13.8,30.67,West,268,4.0,5.0,80,0.00,,OVC,0.00,0.00,VWS V15.00,2013-12-07 05:40:00,
2013-12-06 23:43:00,-8.1,-12.6,30.66,West,273,3.0,6.0,80,0.00,,SCT,0.00,0.00,VWS V14.01,2013-12-07 05:43:00,
2013-12-06 23:45:00,-9.4,-13.9,30.67,West,271,5.0,5.0,80,0.00,,OVC,0.00,0.00,VWS V15.00,2013-12-07 05:45:00,
2013-12-06 23:48:00,-8.1,-12.6,30.66,West,274,3.0,6.0,80,0.00,,SCT,0.00,0.00,VWS V14.01,2013-12-07 05:48:00,
2013-12-06 23:50:00,-9.5,-14.0,30.67,West,269,4.0,5.0,80,0.00,,OVC,0.00,0.00,VWS V15.00,2013-12-07 05:50:00,
2013-12-06 23:53:00,-8.2,-12.7,30.67,West,271,4.0,5.0,80,0.00,,SCT,0.00,0.00,VWS V14.01,2013-12-07 05:53:00,
2013-12-06 23:55:00,-9.7,-14.4,30.68,West,265,3.0,5.0,79,0.00,,OVC,0.00,0.00,VWS V15.00,2013-12-07 05:55:00,
2013-12-06 23:58:00,-8.3,-12.8,30.67,West,269,3.0,4.0,80,0.00,,SCT,0.00,0.00,VWS V14.01,2013-12-07 05:58:00,